User: anonymous   Login
Location: Bangkok
(13.7500°N, 100.5170°E)
Time: 17:15:19
(UTC+07:00)
Language:

SPOT 1/Viking Rocket - Orbit

View from above orbital plane
View from above orbital plane
View from above satellite
View from above satellite

Ground track
Ground track

The orbit data is extracted from the following two-line orbital elements,

1 16615U 86019C   16270.75659818  .00000051  00000-0  35682-4 0  9992
2 16615  98.6483 333.5937 0012938 100.6808  14.5682 14.31613954601806
Epoch (UTC): 26 September 2016 18:09:30
Eccentricity: 0.0012938
inclination: 98.6483°
perigee height: 777 km
apogee height: 795 km
right ascension of ascending node: 333.5937°
argument of perigee: 100.6808°
revolutions per day: 14.31613954
mean anomaly at epoch: 14.5682°
orbit number at epoch: 60180

The dashed part of the orbit path shows where the satellite is in the earth's shadow,  

DLR